Location: Sternwarte auf dem Internationalen Platz Vogelsang IP
(50.5721°N, 6.4398°E)
Time: 11:38:23
(UTC+01:00)

ACS3 Solar Sail - Pass Details

Date: 20 November 2025
Orbit: 888 x 1003 km, 97.3° (Epoch: 07 December)

Event Time Altitude Azimuth Distance (km) Brightness Sun altitude
Rises 04:43:38 0° 9° (N) 3,573 4.9 -30.3°
Reaches altitude 10° 04:46:06 10° 4° (N) 2,642 4.1 -29.9°
Enters shadow 04:48:28 24° 353° (N) 1,824 3.2 -29.5°
